Year,Month,Day,Hour,Minute,Value (Times are PST for temperature in C)
2009,10,03,00,00,6.40
2009,10,03,00,01,6.40
2009,10,03,00,02,6.40
2009,10,03,00,03,6.40
2009,10,03,00,04,6.40
2009,10,03,00,05,6.40
2009,10,03,00,06,6.40
2009,10,03,00,07,6.40
2009,10,03,00,08,6.40
2009,10,03,00,09,6.40
2009,10,03,00,10,6.40
2009,10,03,00,11,6.40
2009,10,03,00,12,6.40
2009,10,03,00,13,6.40
2009,10,03,00,14,6.30
2009,10,03,00,15,6.30
2009,10,03,00,16,6.30
2009,10,03,00,17,6.30
2009,10,03,00,18,6.30
2009,10,03,00,19,6.30
2009,10,03,00,20,6.30
2009,10,03,00,21,6.30
2009,10,03,00,22,6.40
2009,10,03,00,23,6.40
2009,10,03,00,24,6.40
2009,10,03,00,25,6.40
2009,10,03,00,26,6.40
2009,10,03,00,27,6.40
2009,10,03,00,28,6.30
2009,10,03,00,29,6.30
2009,10,03,00,30,6.30
2009,10,03,00,31,6.30
2009,10,03,00,32,6.20
2009,10,03,00,33,6.20
2009,10,03,00,34,6.20
2009,10,03,00,35,6.20
2009,10,03,00,36,6.20
2009,10,03,00,37,6.20
2009,10,03,00,38,6.20
2009,10,03,00,39,6.20
2009,10,03,00,40,6.20
2009,10,03,00,41,6.20
2009,10,03,00,42,6.20
2009,10,03,00,43,6.20
2009,10,03,00,44,6.20
2009,10,03,00,45,6.20
2009,10,03,00,46,6.20
2009,10,03,00,47,6.20
2009,10,03,00,48,6.20
2009,10,03,00,49,6.20
2009,10,03,00,50,6.20
2009,10,03,00,51,6.20
2009,10,03,00,52,6.20
2009,10,03,00,53,6.20
2009,10,03,00,54,6.20
2009,10,03,00,55,6.10
2009,10,03,00,56,6.10
2009,10,03,00,57,6.10
2009,10,03,00,58,6.00
2009,10,03,00,59,6.00
2009,10,03,01,00,5.90
2009,10,03,01,01,5.90
2009,10,03,01,02,5.80
2009,10,03,01,03,5.80
2009,10,03,01,04,5.80
2009,10,03,01,05,5.70
2009,10,03,01,06,5.70
2009,10,03,01,07,5.70
2009,10,03,01,08,5.70
2009,10,03,01,09,5.60
2009,10,03,01,10,5.60
2009,10,03,01,11,5.50
2009,10,03,01,12,5.50
2009,10,03,01,13,5.50
2009,10,03,01,14,5.50
2009,10,03,01,15,5.50
2009,10,03,01,16,5.50
2009,10,03,01,17,5.50
2009,10,03,01,18,5.50
2009,10,03,01,19,5.50
2009,10,03,01,20,5.50
2009,10,03,01,21,5.50
2009,10,03,01,22,5.40
2009,10,03,01,23,5.40
2009,10,03,01,24,5.30
2009,10,03,01,25,5.30
2009,10,03,01,26,5.30
2009,10,03,01,27,5.30
2009,10,03,01,28,5.30
2009,10,03,01,29,5.30
2009,10,03,01,30,5.30
2009,10,03,01,31,5.30
2009,10,03,01,32,5.30
2009,10,03,01,33,5.30
2009,10,03,01,34,5.30
2009,10,03,01,35,5.30
2009,10,03,01,36,5.30
2009,10,03,01,37,5.30
2009,10,03,01,38,5.30
2009,10,03,01,39,5.30
2009,10,03,01,40,5.30
2009,10,03,01,41,5.30
2009,10,03,01,42,5.30
2009,10,03,01,43,5.30
2009,10,03,01,44,5.30
2009,10,03,01,45,5.30
2009,10,03,01,46,5.30
2009,10,03,01,47,5.30
2009,10,03,01,48,5.30
2009,10,03,01,49,5.30
2009,10,03,01,50,5.20
2009,10,03,01,51,5.20
2009,10,03,01,52,5.20
2009,10,03,01,53,5.20
2009,10,03,01,54,5.20
2009,10,03,01,55,5.10
2009,10,03,01,56,5.10
2009,10,03,01,57,5.10
2009,10,03,01,58,5.10
2009,10,03,01,59,5.10
2009,10,03,02,00,5.10
2009,10,03,02,01,5.10
2009,10,03,02,02,5.00
2009,10,03,02,03,4.90
2009,10,03,02,04,4.90
2009,10,03,02,05,4.90
2009,10,03,02,06,4.90
2009,10,03,02,07,4.90
2009,10,03,02,08,4.90
2009,10,03,02,09,4.90
2009,10,03,02,10,4.90
2009,10,03,02,11,4.90
2009,10,03,02,12,4.90
2009,10,03,02,13,4.90
2009,10,03,02,14,5.10
2009,10,03,02,15,5.10
2009,10,03,02,16,5.10
2009,10,03,02,17,5.10
2009,10,03,02,18,5.10
2009,10,03,02,19,5.10
2009,10,03,02,20,5.10
2009,10,03,02,21,5.10
2009,10,03,02,22,5.10
2009,10,03,02,23,5.10
2009,10,03,02,24,5.10
2009,10,03,02,25,5.20
2009,10,03,02,26,5.20
2009,10,03,02,27,5.20
2009,10,03,02,28,5.20
2009,10,03,02,29,5.20
2009,10,03,02,30,5.20
2009,10,03,02,31,5.20
2009,10,03,02,32,5.20
2009,10,03,02,33,5.20
2009,10,03,02,34,5.20
2009,10,03,02,35,5.20
2009,10,03,02,36,5.10
2009,10,03,02,37,5.10
2009,10,03,02,38,5.10
2009,10,03,02,39,5.10
2009,10,03,02,40,5.10
2009,10,03,02,41,5.20
2009,10,03,02,42,5.20
2009,10,03,02,43,5.30
2009,10,03,02,44,5.30
2009,10,03,02,45,5.40
2009,10,03,02,46,5.50
2009,10,03,02,47,5.60
2009,10,03,02,48,5.60
2009,10,03,02,49,5.70
2009,10,03,02,50,5.70
2009,10,03,02,51,5.70
2009,10,03,02,52,5.70
2009,10,03,02,53,5.70
2009,10,03,02,54,5.70
2009,10,03,02,55,5.80
2009,10,03,02,56,5.80
2009,10,03,02,57,5.90
2009,10,03,02,58,5.90
2009,10,03,02,59,6.00
2009,10,03,03,00,6.00
2009,10,03,03,01,6.00
2009,10,03,03,02,6.00
2009,10,03,03,03,6.00
2009,10,03,03,04,6.10
2009,10,03,03,05,6.10
2009,10,03,03,06,6.10
2009,10,03,03,07,6.10
2009,10,03,03,08,6.10
2009,10,03,03,09,6.10
2009,10,03,03,10,6.10
2009,10,03,03,11,6.10
2009,10,03,03,12,6.10
2009,10,03,03,13,6.10
2009,10,03,03,14,6.10
2009,10,03,03,15,6.10
2009,10,03,03,16,6.10
2009,10,03,03,17,6.20
2009,10,03,03,18,6.20
2009,10,03,03,19,6.20
2009,10,03,03,20,6.20
2009,10,03,03,21,6.20
2009,10,03,03,22,6.20
2009,10,03,03,23,6.20
2009,10,03,03,24,6.20
2009,10,03,03,25,6.20
2009,10,03,03,26,6.20
2009,10,03,03,27,6.30
2009,10,03,03,28,6.30
2009,10,03,03,29,6.30
2009,10,03,03,30,6.40
2009,10,03,03,31,6.40
2009,10,03,03,32,6.40
2009,10,03,03,33,6.40
2009,10,03,03,34,6.40
2009,10,03,03,35,6.40
2009,10,03,03,36,6.40
2009,10,03,03,37,6.50
2009,10,03,03,38,6.60
2009,10,03,03,39,6.60
2009,10,03,03,40,6.60
2009,10,03,03,41,6.60
2009,10,03,03,42,6.60
2009,10,03,03,43,6.60
2009,10,03,03,44,6.60
2009,10,03,03,45,6.60
2009,10,03,03,46,6.60
2009,10,03,03,47,6.60
2009,10,03,03,48,6.60
2009,10,03,03,49,6.60
2009,10,03,03,50,6.60
2009,10,03,03,51,6.60
2009,10,03,03,52,6.60
2009,10,03,03,53,6.60
2009,10,03,03,54,6.60
2009,10,03,03,55,6.60
2009,10,03,03,56,6.60
2009,10,03,03,57,6.60
2009,10,03,03,58,6.60
2009,10,03,03,59,6.60
2009,10,03,04,00,6.60
2009,10,03,04,01,6.70
2009,10,03,04,02,6.70
2009,10,03,04,03,6.70
2009,10,03,04,04,6.70
2009,10,03,04,05,6.70
2009,10,03,04,06,6.70
2009,10,03,04,07,6.70
2009,10,03,04,08,6.70
2009,10,03,04,09,6.70
2009,10,03,04,10,6.80
2009,10,03,04,11,6.80
2009,10,03,04,12,6.80
2009,10,03,04,13,6.80
2009,10,03,04,14,6.80
2009,10,03,04,15,6.80
2009,10,03,04,16,6.80
2009,10,03,04,17,6.80
2009,10,03,04,18,6.80
2009,10,03,04,19,6.90
2009,10,03,04,20,6.90
2009,10,03,04,21,6.90
2009,10,03,04,22,7.00
2009,10,03,04,23,7.00
2009,10,03,04,24,7.10
2009,10,03,04,25,7.10
2009,10,03,04,26,7.20
2009,10,03,04,27,7.20
2009,10,03,04,28,7.20
2009,10,03,04,29,7.30
2009,10,03,04,30,7.30
2009,10,03,04,31,7.30
2009,10,03,04,32,7.30
2009,10,03,04,33,7.30
2009,10,03,04,34,7.30
2009,10,03,04,35,7.40
2009,10,03,04,36,7.40
2009,10,03,04,37,7.40
2009,10,03,04,38,7.50
2009,10,03,04,39,7.50
2009,10,03,04,40,7.60
2009,10,03,04,41,7.60
2009,10,03,04,42,7.60
2009,10,03,04,43,7.70
2009,10,03,04,44,7.70
2009,10,03,04,45,7.70
2009,10,03,04,46,7.70
2009,10,03,04,47,7.80
2009,10,03,04,48,7.80
2009,10,03,04,49,7.80
2009,10,03,04,50,7.80
2009,10,03,04,51,7.80
2009,10,03,04,52,7.80
2009,10,03,04,53,7.80
2009,10,03,04,54,7.80
2009,10,03,04,55,7.90
2009,10,03,04,56,7.90
2009,10,03,04,57,7.90
2009,10,03,04,58,7.90
2009,10,03,04,59,7.90
2009,10,03,05,00,7.90
2009,10,03,05,01,7.90
2009,10,03,05,02,7.90
2009,10,03,05,03,7.90
2009,10,03,05,04,8.00
2009,10,03,05,05,8.00
2009,10,03,05,06,8.00
2009,10,03,05,07,8.00
2009,10,03,05,08,8.00
2009,10,03,05,09,8.00
2009,10,03,05,10,8.00
2009,10,03,05,11,8.00
2009,10,03,05,12,8.10
2009,10,03,05,13,8.10
2009,10,03,05,14,8.10
2009,10,03,05,15,8.10
2009,10,03,05,16,8.10
2009,10,03,05,17,8.10
2009,10,03,05,18,8.10
2009,10,03,05,19,8.10
2009,10,03,05,20,8.10
2009,10,03,05,21,8.10
2009,10,03,05,22,8.10
2009,10,03,05,23,8.10
2009,10,03,05,24,8.10
2009,10,03,05,25,8.10
2009,10,03,05,26,8.10
2009,10,03,05,27,8.00
2009,10,03,05,28,8.00
2009,10,03,05,29,8.00
2009,10,03,05,30,8.00
2009,10,03,05,31,8.10
2009,10,03,05,32,8.10
2009,10,03,05,33,8.10
2009,10,03,05,34,8.10
2009,10,03,05,35,8.20
2009,10,03,05,36,8.20
2009,10,03,05,37,8.20
2009,10,03,05,38,8.20
2009,10,03,05,39,8.20
2009,10,03,05,40,8.20
2009,10,03,05,41,8.20
2009,10,03,05,42,8.20
2009,10,03,05,43,8.20
2009,10,03,05,44,8.20
2009,10,03,05,45,8.20
2009,10,03,05,46,8.20
2009,10,03,05,47,8.30
2009,10,03,05,48,8.30
2009,10,03,05,49,8.30
2009,10,03,05,50,8.30
2009,10,03,05,51,8.30
2009,10,03,05,52,8.30
2009,10,03,05,53,8.30
2009,10,03,05,54,8.40
2009,10,03,05,55,8.40
2009,10,03,05,56,8.40
2009,10,03,05,57,8.40
2009,10,03,05,58,8.40
2009,10,03,05,59,8.40
2009,10,03,06,00,8.50
2009,10,03,06,01,8.50
2009,10,03,06,02,8.50
2009,10,03,06,03,8.50
2009,10,03,06,04,8.60
2009,10,03,06,05,8.60
2009,10,03,06,06,8.60
2009,10,03,06,07,8.60
2009,10,03,06,08,8.60
2009,10,03,06,09,8.70
2009,10,03,06,10,8.70
2009,10,03,06,11,8.70
2009,10,03,06,12,8.70
2009,10,03,06,13,8.70
2009,10,03,06,14,8.70
2009,10,03,06,15,8.70
2009,10,03,06,16,8.70
2009,10,03,06,17,8.70
2009,10,03,06,18,8.80
2009,10,03,06,19,8.80
2009,10,03,06,20,8.80
2009,10,03,06,21,8.80
2009,10,03,06,22,8.90
2009,10,03,06,23,8.90
2009,10,03,06,24,8.90
2009,10,03,06,25,8.90
2009,10,03,06,26,8.90
2009,10,03,06,27,9.00
2009,10,03,06,28,9.00
2009,10,03,06,29,9.00
2009,10,03,06,30,9.00
2009,10,03,06,31,9.00
2009,10,03,06,32,9.00
2009,10,03,06,33,9.00
2009,10,03,06,34,9.00
2009,10,03,06,35,9.00
2009,10,03,06,36,9.00
2009,10,03,06,37,9.00
2009,10,03,06,38,9.00
2009,10,03,06,39,9.00
2009,10,03,06,40,9.00
2009,10,03,06,41,9.00
2009,10,03,06,42,9.00
2009,10,03,06,43,8.90
2009,10,03,06,44,8.90
2009,10,03,06,45,8.90
2009,10,03,06,46,8.90
2009,10,03,06,47,8.90
2009,10,03,06,48,8.90
2009,10,03,06,49,8.90
2009,10,03,06,50,8.90
2009,10,03,06,51,8.90
2009,10,03,06,52,8.90
2009,10,03,06,53,8.90
2009,10,03,06,54,8.90
2009,10,03,06,55,8.90
2009,10,03,06,56,8.90
2009,10,03,06,57,8.90
2009,10,03,06,58,8.90
2009,10,03,06,59,8.90
2009,10,03,07,00,8.80
2009,10,03,07,01,8.80
2009,10,03,07,02,8.80
2009,10,03,07,03,8.80
2009,10,03,07,04,8.80
2009,10,03,07,05,8.80
2009,10,03,07,06,8.80
2009,10,03,07,07,8.80
2009,10,03,07,08,8.80
2009,10,03,07,09,8.80
2009,10,03,07,10,8.80
2009,10,03,07,11,8.80
2009,10,03,07,12,8.80
2009,10,03,07,13,8.80
2009,10,03,07,14,8.80
2009,10,03,07,15,8.80
2009,10,03,07,16,8.80
2009,10,03,07,17,8.70
2009,10,03,07,18,8.70
2009,10,03,07,19,8.80
2009,10,03,07,20,8.80
2009,10,03,07,21,8.80
2009,10,03,07,22,8.80
2009,10,03,07,23,8.80
2009,10,03,07,24,8.80
2009,10,03,07,25,8.80
2009,10,03,07,26,8.80
2009,10,03,07,27,8.80
2009,10,03,07,28,8.80
2009,10,03,07,29,8.80
2009,10,03,07,30,8.80
2009,10,03,07,31,8.80
2009,10,03,07,32,8.80
2009,10,03,07,33,8.80
2009,10,03,07,34,8.80
2009,10,03,07,35,8.80
2009,10,03,07,36,8.80
2009,10,03,07,37,8.80
2009,10,03,07,38,8.80
2009,10,03,07,39,8.80
2009,10,03,07,40,8.80
2009,10,03,07,41,8.80
2009,10,03,07,42,8.80
2009,10,03,07,43,8.80
2009,10,03,07,44,8.80
2009,10,03,07,45,8.80
2009,10,03,07,46,8.80
2009,10,03,07,47,8.80
2009,10,03,07,48,8.80
2009,10,03,07,49,8.90
2009,10,03,07,50,8.90
2009,10,03,07,51,8.90
2009,10,03,07,52,8.90
2009,10,03,07,53,8.90
2009,10,03,07,54,8.90
2009,10,03,07,55,8.90
2009,10,03,07,56,8.90
2009,10,03,07,57,8.90
2009,10,03,07,58,8.90
2009,10,03,07,59,8.90
2009,10,03,08,00,8.90
2009,10,03,08,01,8.90
2009,10,03,08,02,8.80
2009,10,03,08,03,8.80
2009,10,03,08,04,8.80
2009,10,03,08,05,8.80
2009,10,03,08,06,8.80
2009,10,03,08,07,8.80
2009,10,03,08,08,8.80
2009,10,03,08,09,8.80
2009,10,03,08,10,8.80
2009,10,03,08,11,8.80
2009,10,03,08,12,8.80
2009,10,03,08,13,8.80
2009,10,03,08,14,8.80
2009,10,03,08,15,8.80
2009,10,03,08,16,8.80
2009,10,03,08,17,8.80
2009,10,03,08,18,8.80
2009,10,03,08,19,8.80
2009,10,03,08,20,8.80
2009,10,03,08,21,8.80
2009,10,03,08,22,8.80
2009,10,03,08,23,8.80
2009,10,03,08,24,8.80
2009,10,03,08,25,8.80
2009,10,03,08,26,8.80
2009,10,03,08,27,8.80
2009,10,03,08,28,8.80
2009,10,03,08,29,8.80
2009,10,03,08,30,8.80
2009,10,03,08,31,8.80
2009,10,03,08,32,8.80
2009,10,03,08,33,8.80
2009,10,03,08,34,8.80
2009,10,03,08,35,8.80
2009,10,03,08,36,8.80
2009,10,03,08,37,8.80
2009,10,03,08,38,8.80
2009,10,03,08,39,8.90
2009,10,03,08,40,8.90
2009,10,03,08,41,8.90
2009,10,03,08,42,8.90
2009,10,03,08,43,8.90
2009,10,03,08,44,8.90
2009,10,03,08,45,8.90
2009,10,03,08,46,9.00
2009,10,03,08,47,9.00
2009,10,03,08,48,9.00
2009,10,03,08,49,9.10
2009,10,03,08,50,9.10
2009,10,03,08,51,9.10
2009,10,03,08,52,9.20
2009,10,03,08,53,9.20
2009,10,03,08,54,9.20
2009,10,03,08,55,9.20
2009,10,03,08,56,9.30
2009,10,03,08,57,9.30
2009,10,03,08,58,9.30
2009,10,03,08,59,9.40
2009,10,03,09,00,9.40
2009,10,03,09,01,9.50
2009,10,03,09,02,9.50
2009,10,03,09,03,9.60
2009,10,03,09,04,9.70
2009,10,03,09,05,9.70
2009,10,03,09,06,9.70
2009,10,03,09,07,9.70
2009,10,03,09,08,9.80
2009,10,03,09,09,9.80
2009,10,03,09,10,9.90
2009,10,03,09,11,9.90
2009,10,03,09,12,9.90
2009,10,03,09,13,9.90
2009,10,03,09,14,10.00
2009,10,03,09,15,10.10
2009,10,03,09,16,10.10
2009,10,03,09,17,10.20
2009,10,03,09,18,10.30
2009,10,03,09,19,10.30
2009,10,03,09,20,10.40
2009,10,03,09,21,10.40
2009,10,03,09,22,10.40
2009,10,03,09,23,10.60
2009,10,03,09,24,10.60
2009,10,03,09,25,10.60
2009,10,03,09,26,10.60
2009,10,03,09,27,10.70
2009,10,03,09,28,10.70
2009,10,03,09,29,10.80
2009,10,03,09,30,10.80
2009,10,03,09,31,10.80
2009,10,03,09,32,10.80
2009,10,03,09,33,10.80
2009,10,03,09,34,10.90
2009,10,03,09,35,10.90
2009,10,03,09,36,10.90
2009,10,03,09,37,10.90
2009,10,03,09,38,10.90
2009,10,03,09,39,10.90
2009,10,03,09,40,10.90
2009,10,03,09,41,10.90
2009,10,03,09,42,10.90
2009,10,03,09,43,10.90
2009,10,03,09,44,10.90
2009,10,03,09,45,10.90
2009,10,03,09,46,11.00
2009,10,03,09,47,11.10
2009,10,03,09,48,11.10
2009,10,03,09,49,11.10
2009,10,03,09,50,11.10
2009,10,03,09,51,11.10
2009,10,03,09,52,11.10
2009,10,03,09,53,11.10
2009,10,03,09,54,11.10
2009,10,03,09,55,11.10
2009,10,03,09,56,11.10
2009,10,03,09,57,11.10
2009,10,03,09,58,11.10
2009,10,03,09,59,11.10
2009,10,03,10,00,11.10
2009,10,03,10,01,11.10
2009,10,03,10,02,11.10
2009,10,03,10,03,11.10
2009,10,03,10,04,11.00
2009,10,03,10,05,10.90
2009,10,03,10,06,10.90
2009,10,03,10,07,11.10
2009,10,03,10,08,11.10
2009,10,03,10,09,11.10
2009,10,03,10,10,11.10
2009,10,03,10,11,11.20
2009,10,03,10,12,11.30
2009,10,03,10,13,11.40
2009,10,03,10,14,11.40
2009,10,03,10,15,11.40
2009,10,03,10,16,11.60
2009,10,03,10,17,11.60
2009,10,03,10,18,11.60
2009,10,03,10,19,11.70
2009,10,03,10,20,11.80
2009,10,03,10,21,11.80
2009,10,03,10,22,11.90
2009,10,03,10,23,11.90
2009,10,03,10,24,12.00
2009,10,03,10,25,12.00
2009,10,03,10,26,12.10
2009,10,03,10,27,12.20
2009,10,03,10,28,12.10
2009,10,03,10,29,12.10
2009,10,03,10,30,12.10
2009,10,03,10,31,12.10
2009,10,03,10,32,12.10
2009,10,03,10,33,12.10
2009,10,03,10,34,12.10
2009,10,03,10,35,12.10
2009,10,03,10,36,12.20
2009,10,03,10,37,12.20
2009,10,03,10,38,12.20
2009,10,03,10,39,12.30
2009,10,03,10,40,12.30
2009,10,03,10,41,12.30
2009,10,03,10,42,12.30
2009,10,03,10,43,12.30
2009,10,03,10,44,12.30
2009,10,03,10,45,12.30
2009,10,03,10,46,12.30
2009,10,03,10,47,12.30
2009,10,03,10,48,12.40
2009,10,03,10,49,12.40
2009,10,03,10,50,12.40
2009,10,03,10,51,12.40
2009,10,03,10,52,12.40
2009,10,03,10,53,12.50
2009,10,03,10,54,12.50
2009,10,03,10,55,12.50
2009,10,03,10,56,12.50
2009,10,03,10,57,12.50
2009,10,03,10,58,12.50
2009,10,03,10,59,12.60
2009,10,03,11,00,12.60
2009,10,03,11,01,12.60
2009,10,03,11,02,12.70
2009,10,03,11,03,12.70
2009,10,03,11,04,12.70
2009,10,03,11,05,12.70
2009,10,03,11,06,12.80
2009,10,03,11,07,12.80
2009,10,03,11,08,12.90
2009,10,03,11,09,12.90
2009,10,03,11,10,13.00
2009,10,03,11,11,13.00
2009,10,03,11,12,13.00
2009,10,03,11,13,13.00
2009,10,03,11,14,13.00
2009,10,03,11,15,13.00
2009,10,03,11,16,13.00
2009,10,03,11,17,13.10
2009,10,03,11,18,13.10
2009,10,03,11,19,13.10
2009,10,03,11,20,13.10
2009,10,03,11,21,13.10
2009,10,03,11,22,13.00
2009,10,03,11,23,13.00
2009,10,03,11,24,13.10
2009,10,03,11,25,13.10
2009,10,03,11,26,13.10
2009,10,03,11,27,13.20
2009,10,03,11,28,13.20
2009,10,03,11,29,13.20
2009,10,03,11,30,13.20
2009,10,03,11,31,13.30
2009,10,03,11,32,13.30
2009,10,03,11,33,13.30
2009,10,03,11,34,13.30
2009,10,03,11,35,13.30
2009,10,03,11,36,13.30
2009,10,03,11,37,13.30
2009,10,03,11,38,13.30
2009,10,03,11,39,13.30
2009,10,03,11,40,13.30
2009,10,03,11,41,13.30
2009,10,03,11,42,13.30
2009,10,03,11,43,13.40
2009,10,03,11,44,13.40
2009,10,03,11,45,13.40
2009,10,03,11,46,13.50
2009,10,03,11,47,13.50
2009,10,03,11,48,13.50
2009,10,03,11,49,13.50
2009,10,03,11,50,13.50
2009,10,03,11,51,13.40
2009,10,03,11,52,13.40
2009,10,03,11,53,13.40
2009,10,03,11,54,13.40
2009,10,03,11,55,13.40
2009,10,03,11,56,13.50
2009,10,03,11,57,13.50
2009,10,03,11,58,13.50
2009,10,03,11,59,13.50
2009,10,03,12,00,13.40
2009,10,03,12,01,13.40
2009,10,03,12,02,13.30
2009,10,03,12,03,13.30
2009,10,03,12,04,13.30
2009,10,03,12,05,13.30
2009,10,03,12,06,13.30
2009,10,03,12,07,13.30
2009,10,03,12,08,13.40
2009,10,03,12,09,13.40
2009,10,03,12,10,13.50
2009,10,03,12,11,13.60
2009,10,03,12,12,13.70
2009,10,03,12,13,13.80
2009,10,03,12,14,13.80
2009,10,03,12,15,13.80
2009,10,03,12,16,13.80
2009,10,03,12,17,13.80
2009,10,03,12,18,13.80
2009,10,03,12,19,13.70
2009,10,03,12,20,13.70
2009,10,03,12,21,13.70
2009,10,03,12,22,13.70
2009,10,03,12,23,13.70
2009,10,03,12,24,13.70
2009,10,03,12,25,13.70
2009,10,03,12,26,13.70
2009,10,03,12,27,13.70
2009,10,03,12,28,13.70
2009,10,03,12,29,13.70
2009,10,03,12,30,13.70
2009,10,03,12,31,13.70
2009,10,03,12,32,13.70
2009,10,03,12,33,13.70
2009,10,03,12,34,13.80
2009,10,03,12,35,13.90
2009,10,03,12,36,13.90
2009,10,03,12,37,13.80
2009,10,03,12,38,13.80
2009,10,03,12,39,13.80
2009,10,03,12,40,13.80
2009,10,03,12,41,13.80
2009,10,03,12,42,13.80
2009,10,03,12,43,13.90
2009,10,03,12,44,13.90
2009,10,03,12,45,13.90
2009,10,03,12,46,13.90
2009,10,03,12,47,13.90
2009,10,03,12,48,13.90
2009,10,03,12,49,13.90
2009,10,03,12,50,13.90
2009,10,03,12,51,13.90
2009,10,03,12,52,13.90
2009,10,03,12,53,13.90
2009,10,03,12,54,14.00
2009,10,03,12,55,14.10
2009,10,03,12,56,14.20
2009,10,03,12,57,14.20
2009,10,03,12,58,14.40
2009,10,03,12,59,14.50
2009,10,03,13,00,14.60
2009,10,03,13,01,14.60
2009,10,03,13,02,14.70
2009,10,03,13,03,14.70
2009,10,03,13,04,14.70
2009,10,03,13,05,14.70
2009,10,03,13,06,14.80
2009,10,03,13,07,14.80
2009,10,03,13,08,14.80
2009,10,03,13,09,14.80
2009,10,03,13,10,14.80
2009,10,03,13,11,14.70
2009,10,03,13,12,14.70
2009,10,03,13,13,14.60
2009,10,03,13,14,14.50
2009,10,03,13,15,14.50
2009,10,03,13,16,14.50
2009,10,03,13,17,14.60
2009,10,03,13,18,14.60
2009,10,03,13,19,14.70
2009,10,03,13,20,14.80
2009,10,03,13,21,14.80
2009,10,03,13,22,14.90
2009,10,03,13,23,14.90
2009,10,03,13,24,14.90
2009,10,03,13,25,14.90
2009,10,03,13,26,14.80
2009,10,03,13,27,14.80
2009,10,03,13,28,14.80
2009,10,03,13,29,14.70
2009,10,03,13,30,14.70
2009,10,03,13,31,14.70
2009,10,03,13,32,14.70
2009,10,03,13,33,14.70
2009,10,03,13,34,14.70
2009,10,03,13,35,14.60
2009,10,03,13,36,14.60
2009,10,03,13,37,14.50
2009,10,03,13,38,14.50
2009,10,03,13,39,14.40
2009,10,03,13,40,14.40
2009,10,03,13,41,14.30
2009,10,03,13,42,14.00
2009,10,03,13,43,13.70
2009,10,03,13,44,13.50
2009,10,03,13,45,13.40
2009,10,03,13,46,13.30
2009,10,03,13,47,13.10
2009,10,03,13,48,12.90
2009,10,03,13,49,12.80
2009,10,03,13,50,12.70
2009,10,03,13,51,12.70
2009,10,03,13,52,12.60
2009,10,03,13,53,12.50
2009,10,03,13,54,12.40
2009,10,03,13,55,12.40
2009,10,03,13,56,12.40
2009,10,03,13,57,12.40
2009,10,03,13,58,12.40
2009,10,03,13,59,12.50
2009,10,03,14,00,12.50
2009,10,03,14,01,12.60
2009,10,03,14,02,12.50
2009,10,03,14,03,12.50
2009,10,03,14,04,12.50
2009,10,03,14,05,12.50
2009,10,03,14,06,12.40
2009,10,03,14,07,12.30
2009,10,03,14,08,12.30
2009,10,03,14,09,12.40
2009,10,03,14,10,12.40
2009,10,03,14,11,12.50
2009,10,03,14,12,12.60
2009,10,03,14,13,12.70
2009,10,03,14,14,12.80
2009,10,03,14,15,12.80
2009,10,03,14,16,12.90
2009,10,03,14,17,12.90
2009,10,03,14,18,12.90
2009,10,03,14,19,13.00
2009,10,03,14,20,13.00
2009,10,03,14,21,13.10
2009,10,03,14,22,13.20
2009,10,03,14,23,13.20
2009,10,03,14,24,13.30
2009,10,03,14,25,13.30
2009,10,03,14,26,13.30
2009,10,03,14,27,13.30
2009,10,03,14,28,13.30
2009,10,03,14,29,13.30
2009,10,03,14,30,13.40
2009,10,03,14,31,13.40
2009,10,03,14,32,13.40
2009,10,03,14,33,13.40
2009,10,03,14,34,13.40
2009,10,03,14,35,13.50
2009,10,03,14,36,13.50
2009,10,03,14,37,13.50
2009,10,03,14,38,13.60
2009,10,03,14,39,13.60
2009,10,03,14,40,13.60
2009,10,03,14,41,13.60
2009,10,03,14,42,13.50
2009,10,03,14,43,13.40
2009,10,03,14,44,13.40
2009,10,03,14,45,13.30
2009,10,03,14,46,13.30
2009,10,03,14,47,13.30
2009,10,03,14,48,13.20
2009,10,03,14,49,13.10
2009,10,03,14,50,13.10
2009,10,03,14,51,13.10
2009,10,03,14,52,13.20
2009,10,03,14,53,13.30
2009,10,03,14,54,13.40
2009,10,03,14,55,13.40
2009,10,03,14,56,13.50
2009,10,03,14,57,13.50
2009,10,03,14,58,13.60
2009,10,03,14,59,13.60
2009,10,03,15,00,13.60
2009,10,03,15,01,13.60
2009,10,03,15,02,13.60
2009,10,03,15,03,13.60
2009,10,03,15,04,13.70
2009,10,03,15,05,13.70
2009,10,03,15,06,13.70
2009,10,03,15,07,13.70
2009,10,03,15,08,13.70
2009,10,03,15,09,13.70
2009,10,03,15,10,13.70
2009,10,03,15,11,13.70
2009,10,03,15,12,13.70
2009,10,03,15,13,13.70
2009,10,03,15,14,13.70
2009,10,03,15,15,13.70
2009,10,03,15,16,13.70
2009,10,03,15,17,13.70
2009,10,03,15,18,13.70
2009,10,03,15,19,13.60
2009,10,03,15,20,13.60
2009,10,03,15,21,13.70
2009,10,03,15,22,13.70
2009,10,03,15,23,13.70
2009,10,03,15,24,13.70
2009,10,03,15,25,13.80
2009,10,03,15,26,13.80
2009,10,03,15,27,13.90
2009,10,03,15,28,14.00
2009,10,03,15,29,14.00
2009,10,03,15,30,14.10
2009,10,03,15,31,14.20
2009,10,03,15,32,14.20
2009,10,03,15,33,14.20
2009,10,03,15,34,14.20
2009,10,03,15,35,14.20
2009,10,03,15,36,14.20
2009,10,03,15,37,14.20
2009,10,03,15,38,14.20
2009,10,03,15,39,14.20
2009,10,03,15,40,14.20
2009,10,03,15,41,14.20
2009,10,03,15,42,14.20
2009,10,03,15,43,14.30
2009,10,03,15,44,14.40
2009,10,03,15,45,14.50
2009,10,03,15,46,14.50
2009,10,03,15,47,14.60
2009,10,03,15,48,14.70
2009,10,03,15,49,14.80
2009,10,03,15,50,14.90
2009,10,03,15,51,15.00
2009,10,03,15,52,15.00
2009,10,03,15,53,15.10
2009,10,03,15,54,15.10
2009,10,03,15,55,15.10
2009,10,03,15,56,15.20
2009,10,03,15,57,15.20
2009,10,03,15,58,15.30
2009,10,03,15,59,15.30
2009,10,03,16,00,15.30
2009,10,03,16,01,15.30
2009,10,03,16,02,15.30
2009,10,03,16,03,15.40
2009,10,03,16,04,15.40
2009,10,03,16,05,15.30
2009,10,03,16,06,15.30
2009,10,03,16,07,15.40
2009,10,03,16,08,15.40
2009,10,03,16,09,15.40
2009,10,03,16,10,15.50
2009,10,03,16,11,15.40
2009,10,03,16,12,15.40
2009,10,03,16,13,15.40
2009,10,03,16,14,15.30
2009,10,03,16,15,15.30
2009,10,03,16,16,15.20
2009,10,03,16,17,15.10
2009,10,03,16,18,15.00
2009,10,03,16,19,15.00
2009,10,03,16,20,15.00
2009,10,03,16,21,15.00
2009,10,03,16,22,15.00
2009,10,03,16,23,15.00
2009,10,03,16,24,15.00
2009,10,03,16,25,15.00
2009,10,03,16,26,15.10
2009,10,03,16,27,15.20
2009,10,03,16,28,15.20
2009,10,03,16,29,15.30
2009,10,03,16,30,15.30
2009,10,03,16,31,15.30
2009,10,03,16,32,15.30
2009,10,03,16,33,15.30
2009,10,03,16,34,15.30
2009,10,03,16,35,15.30
2009,10,03,16,36,15.30
2009,10,03,16,37,15.30
2009,10,03,16,38,15.30
2009,10,03,16,39,15.30
2009,10,03,16,40,15.30
2009,10,03,16,41,15.40
2009,10,03,16,42,15.40
2009,10,03,16,43,15.40
2009,10,03,16,44,15.40
2009,10,03,16,45,15.40
2009,10,03,16,46,15.40
2009,10,03,16,47,15.40
2009,10,03,16,48,15.40
2009,10,03,16,49,15.30
2009,10,03,16,50,15.30
2009,10,03,16,51,15.30
2009,10,03,16,52,15.30
2009,10,03,16,53,15.30
2009,10,03,16,54,15.30
2009,10,03,16,55,15.40
2009,10,03,16,56,15.40
2009,10,03,16,57,15.40
2009,10,03,16,58,15.40
2009,10,03,16,59,15.30
2009,10,03,17,00,15.30
2009,10,03,17,01,15.30
2009,10,03,17,02,15.30
2009,10,03,17,03,15.30
2009,10,03,17,04,15.30
2009,10,03,17,05,15.30
2009,10,03,17,06,15.30
2009,10,03,17,07,15.20
2009,10,03,17,08,15.20
2009,10,03,17,09,15.20
2009,10,03,17,10,15.20
2009,10,03,17,11,15.20
2009,10,03,17,12,15.20
2009,10,03,17,13,15.20
2009,10,03,17,14,15.20
2009,10,03,17,15,15.20
2009,10,03,17,16,15.20
2009,10,03,17,17,15.30
2009,10,03,17,18,15.30
2009,10,03,17,19,15.30
2009,10,03,17,20,15.30
2009,10,03,17,21,15.30
2009,10,03,17,22,15.30
2009,10,03,17,23,15.30
2009,10,03,17,24,15.30
2009,10,03,17,25,15.30
2009,10,03,17,26,15.30
2009,10,03,17,27,15.30
2009,10,03,17,28,15.30
2009,10,03,17,29,15.30
2009,10,03,17,30,15.30
2009,10,03,17,31,15.30
2009,10,03,17,32,15.30
2009,10,03,17,33,15.30
2009,10,03,17,34,15.30
2009,10,03,17,35,15.30
2009,10,03,17,36,15.30
2009,10,03,17,37,15.30
2009,10,03,17,38,15.30
2009,10,03,17,39,15.20
2009,10,03,17,40,15.20
2009,10,03,17,41,15.20
2009,10,03,17,42,15.10
2009,10,03,17,43,15.10